Weather reports worldwide

Advertisment
Isola Di Salina, Italy (16415): temperature & dewpoint: 16.04.2018 16:00:00 - 22.04.2018 16:00:00 (CEST)Isola Di Salina, Italy (16415): wind speed: 16.04.2018 16:00:00 - 22.04.2018 16:00:00 (CEST)Isola Di Salina, Italy (16415): wind direction: 16.04.2018 16:00:00 - 22.04.2018 16:00:00 (CEST)Isola Di Salina, Italy (16415): reduced air pressure: 16.04.2018 16:00:00 - 22.04.2018 16:00:00 (CEST)Isola Di Salina, Italy (16415): precipitation: 16.04.2018 16:00:00 - 22.04.2018 16:00:00 (CEST)
Date & Time tt [°C] td [°C] ff [km/h] ff [kn] dd ppp [hPa] rr [mm]
22.04.2018 16:00:00 - - - - - - -
22.04.2018 15:00:00 18,6 16,5 2 1 ENE 1018,8 -
22.04.2018 14:00:00 19,0 17,4 4 2 SE 1019,3 0,0
22.04.2018 13:00:00 19,1 17,9 2 1 E 1019,6 -
22.04.2018 12:00:00 18,3 16,9 9 5 NNW 1019,8 -
22.04.2018 11:00:00 18,5 17,6 8 4 N 1019,8 -
22.04.2018 10:00:00 17,6 16,9 4 2 N 1019,6 -
22.04.2018 09:00:00 16,7 16,2 4 2 N 1019,4 -
22.04.2018 08:00:00 15,2 14,5 5 3 NW 1019,1 0,0
22.04.2018 07:00:00 13,9 13,1 0 0 N 1019,1 -
22.04.2018 06:00:00 14,3 13,5 5 3 S 1018,6 -
22.04.2018 05:00:00 14,4 13,6 0 0 N 1018,8 -
22.04.2018 04:00:00 14,4 13,7 4 2 S 1018,8 -
22.04.2018 03:00:00 14,9 14,2 8 4 S 1019,1 -
22.04.2018 02:00:00 14,5 13,5 5 3 S 1019,5 0,0
22.04.2018 01:00:00 14,1 13,1 0 0 N 1020,0 -
22.04.2018 00:00:00 14,7 13,5 0 0 N 1020,0 -
21.04.2018 23:00:00 15,1 13,9 4 2 SSW 1020,0 -
21.04.2018 22:00:00 15,7 14,2 5 3 S 1019,8 -
21.04.2018 21:00:00 16,0 14,3 4 2 WSW 1019,3 -
21.04.2018 20:00:00 16,7 14,3 4 2 NW 1019,0 0,0
21.04.2018 19:00:00 17,1 13,2 2 1 NW 1019,0 -
21.04.2018 18:00:00 17,3 13,9 5 3 N 1019,0 -
21.04.2018 17:00:00 18,0 14,4 2 1 NNW 1019,3 -
21.04.2018 16:00:00 19,1 17,2 2 1 E 1019,4 -
21.04.2018 15:00:00 18,6 15,8 5 3 NNW 1019,8 -
21.04.2018 14:00:00 18,8 17,4 11 6 NW 1020,0 0,0
21.04.2018 13:00:00 18,7 17,3 13 7 N 1020,0 -
21.04.2018 12:00:00 17,9 16,3 9 5 NNW 1020,1 -
21.04.2018 11:00:00 18,7 17,8 8 4 S 1020,1 -
21.04.2018 10:00:00 17,8 17,4 2 1 NE 1019,7 -
21.04.2018 09:00:00 16,3 15,9 2 1 NE 1019,5 -
21.04.2018 08:00:00 15,3 14,8 2 1 NE 1019,3 0,0
21.04.2018 07:00:00 14,4 13,7 4 2 S 1019,0 -
21.04.2018 06:00:00 13,9 13,1 4 2 SSW 1018,7 -
21.04.2018 05:00:00 14,8 14,1 4 2 N 1018,8 -
21.04.2018 04:00:00 14,1 12,9 8 4 NW 1018,7 -
21.04.2018 03:00:00 13,9 12,6 4 2 WSW 1019,1 -
21.04.2018 02:00:00 14,2 13,0 4 2 W 1019,8 0,0
21.04.2018 01:00:00 14,6 13,3 0 0 N 1020,1 -
21.04.2018 00:00:00 15,3 13,9 0 0 N 1020,1 -
20.04.2018 23:00:00 14,9 13,2 4 2 W 1020,0 -
20.04.2018 22:00:00 15,1 13,1 0 0 N 1020,0 -
20.04.2018 21:00:00 15,5 13,1 0 0 N 1019,5 -
20.04.2018 20:00:00 16,1 13,3 2 1 SSE 1019,1 0,0
20.04.2018 19:00:00 17,2 14,8 2 1 NNW 1019,3 -
20.04.2018 18:00:00 17,7 15,4 5 3 S 1019,3 -
20.04.2018 17:00:00 19,4 13,3 4 2 WNW 1019,2 -
20.04.2018 16:00:00 19,6 13,4 9 5 WNW 1019,6 -
20.04.2018 15:00:00 19,2 15,4 8 4 WNW 1020,3 -
20.04.2018 14:00:00 18,5 16,4 15 8 NW 1020,6 0,0
20.04.2018 13:00:00 18,4 16,8 9 5 WNW 1020,9 -
20.04.2018 12:00:00 18,5 17,3 5 3 N 1021,1 -
20.04.2018 11:00:00 18,5 18,0 8 4 SSE 1021,3 -
20.04.2018 10:00:00 17,1 16,9 13 7 SSE 1020,9 -
20.04.2018 09:00:00 15,7 15,5 2 1 ESE 1021,0 -
20.04.2018 08:00:00 14,5 14,3 2 1 NNW 1021,1 -
20.04.2018 07:00:00 13,4 13,0 2 1 NW 1021,0 -
20.04.2018 06:00:00 13,3 12,8 0 0 N 1020,9 -
20.04.2018 05:00:00 13,4 12,9 2 1 NNW 1020,9 -
20.04.2018 04:00:00 13,4 12,9 2 1 SSW 1021,2 -
20.04.2018 03:00:00 13,4 12,9 0 0 N 1021,4 -
20.04.2018 02:00:00 13,8 13,3 4 2 S 1021,9 0,0
20.04.2018 01:00:00 14,1 13,4 4 2 W 1022,1 -
20.04.2018 00:00:00 14,1 13,4 0 0 N 1022,5 -
19.04.2018 23:00:00 14,4 13,6 4 2 WNW 1022,9 -
19.04.2018 22:00:00 14,8 13,8 0 0 N 1023,1 -
19.04.2018 21:00:00 15,0 13,8 2 1 W 1023,0 -
19.04.2018 20:00:00 15,5 14,3 2 1 WNW 1022,5 0,0
19.04.2018 19:00:00 16,2 14,8 8 4 NW 1022,1 -
19.04.2018 18:00:00 16,8 15,3 2 1 N 1022,3 -
19.04.2018 17:00:00 17,6 16,1 4 2 N 1022,2 -
19.04.2018 16:00:00 17,7 16,1 15 8 NNW 1022,3 -
19.04.2018 15:00:00 18,7 17,0 8 4 N 1023,0 -
19.04.2018 14:00:00 17,4 15,9 4 2 N 1023,4 0,0
19.04.2018 13:00:00 17,7 16,5 4 2 ENE 1023,7 -
19.04.2018 12:00:00 17,3 16,3 5 3 NE 1024,1 -
19.04.2018 11:00:00 16,3 15,4 4 2 N 1023,8 -
19.04.2018 10:00:00 16,0 15,6 4 2 N 1023,8 -
19.04.2018 09:00:00 15,1 14,7 0 0 N 1023,7 -
19.04.2018 08:00:00 13,7 13,2 2 1 WNW 1023,8 0,0
19.04.2018 07:00:00 12,9 12,3 4 2 W 1023,3 -
19.04.2018 06:00:00 12,4 11,5 0 0 N 1023,2 -
19.04.2018 05:00:00 12,4 11,5 0 0 N 1023,4 -
19.04.2018 04:00:00 13,0 11,9 0 0 N 1023,4 -
19.04.2018 03:00:00 13,1 11,8 5 3 NW 1023,5 -
19.04.2018 02:00:00 13,6 12,5 2 1 S 1023,9 0,0
19.04.2018 01:00:00 13,0 11,9 5 3 S 1023,9 -
19.04.2018 00:00:00 13,1 12,3 0 0 N 1024,1 -
18.04.2018 23:00:00 13,5 12,8 13 7 NW 1024,0 -
18.04.2018 22:00:00 13,8 13,0 5 3 WNW 1023,8 -
18.04.2018 21:00:00 14,2 13,2 4 2 N 1023,4 -
18.04.2018 20:00:00 14,6 13,4 4 2 SW 1022,5 0,0
18.04.2018 19:00:00 15,5 14,1 9 5 WNW 1022,4 -
18.04.2018 18:00:00 15,7 14,3 0 0 N 1022,6 -
18.04.2018 17:00:00 16,3 14,8 5 3 NNW 1022,7 -
18.04.2018 16:00:00 16,7 15,2 2 1 N 1022,4 -
18.04.2018 15:00:00 16,7 15,3 4 2 NE 1022,6 -
18.04.2018 14:00:00 16,4 15,0 4 2 N 1022,2 0,0
18.04.2018 13:00:00 16,0 14,6 2 1 N 1022,5 -
18.04.2018 12:00:00 16,8 15,6 4 2 ESE 1022,7 -
18.04.2018 11:00:00 15,9 15,0 4 2 NE 1022,3 -
18.04.2018 10:00:00 16,3 15,9 5 3 ESE 1021,9 -
18.04.2018 09:00:00 14,8 14,6 5 3 SE 1021,8 -
18.04.2018 08:00:00 13,6 13,2 4 2 ESE 1021,6 0,0
18.04.2018 07:00:00 12,8 12,5 0 0 N 1021,2 -
18.04.2018 06:00:00 12,4 11,9 0 0 N 1020,8 -
18.04.2018 05:00:00 12,7 12,2 4 2 S 1020,7 -
18.04.2018 04:00:00 12,8 12,3 0 0 N 1020,6 -
18.04.2018 03:00:00 12,9 12,3 5 3 NNW 1020,6 -
18.04.2018 02:00:00 12,7 11,7 0 0 N 1020,8 0,0
18.04.2018 01:00:00 12,2 11,1 0 0 N 1020,8 -
18.04.2018 00:00:00 12,7 11,7 0 0 N 1020,7 -
17.04.2018 23:00:00 12,8 11,8 5 3 SSW 1021,0 -
17.04.2018 22:00:00 13,4 12,3 9 5 S 1021,1 -
17.04.2018 21:00:00 13,8 12,7 5 3 S 1020,6 -
17.04.2018 20:00:00 14,5 13,0 2 1 NE 1020,1 0,0
17.04.2018 19:00:00 15,5 13,8 8 4 NNW 1019,7 -
17.04.2018 18:00:00 16,5 13,0 5 3 WNW 1019,4 -
17.04.2018 17:00:00 17,0 14,2 13 7 NW 1019,2 -
17.04.2018 16:00:00 17,0 15,3 16 9 NW 1019,5 -
17.04.2018 15:00:00 17,4 15,5 16 9 NW 1019,9 -
17.04.2018 14:00:00 17,6 15,3 15 8 NW 1019,8 0,0
17.04.2018 13:00:00 18,0 16,1 9 5 E 1020,0 -
17.04.2018 12:00:00 17,9 16,5 8 4 ESE 1019,9 -
17.04.2018 11:00:00 16,8 15,8 4 2 NE 1019,9 -
17.04.2018 10:00:00 15,9 15,2 2 1 WNW 1019,9 -
17.04.2018 09:00:00 14,8 14,1 4 2 S 1019,5 -
17.04.2018 08:00:00 13,2 12,4 0 0 N 1019,1 0,0
17.04.2018 07:00:00 11,9 11,0 0 0 N 1018,5 -
17.04.2018 06:00:00 12,4 11,6 0 0 N 1018,0 -
17.04.2018 05:00:00 12,8 11,8 9 5 W 1017,9 -
17.04.2018 04:00:00 12,7 11,3 5 3 W 1017,8 -
17.04.2018 03:00:00 13,6 12,1 5 3 NNW 1017,7 -
17.04.2018 02:00:00 13,5 11,0 5 3 WSW 1017,3 0,0
17.04.2018 01:00:00 14,0 11,5 4 2 WNW 1017,6 -
17.04.2018 00:00:00 13,8 10,6 9 5 W 1017,5 -
16.04.2018 23:00:00 13,9 11,6 16 9 WNW 1017,2 -
16.04.2018 22:00:00 14,1 12,1 22 12 WNW 1016,8 -
16.04.2018 21:00:00 14,7 11,6 15 8 WNW 1015,7 -
16.04.2018 20:00:00 14,2 12,7 16 9 WNW 1014,9 0,0
16.04.2018 19:00:00 15,1 13,4 15 8 WNW 1014,4 -
16.04.2018 18:00:00 15,7 13,5 21 11 WNW 1014,0 -
16.04.2018 17:00:00 16,0 13,8 24 13 WNW 1013,7 -
16.04.2018 16:00:00 16,3 13,7 28 15 WNW 1013,5 -

tt = temperature
td = dewpoint
ff = wind speed
dd = wind direction
ppp = reduced air pressure
rr = precipitation

Next stations